QPF
0.00 0.00 0.00 0.00 0.00 0.01 0.02 0.03 0.02 0.02 0.02 0.03 0.03 0.03 0.02 0.02 0.03 0.02 0.01 0.00 0.01 0.01 0.02 0.02 0.02 0.02 0.02 0.01 0.01 0.00 0.00 0.01 0.01 0.01 0.01 0.01 0.01 0.01 0.01 0.01 0.02 0.02 0.02
0.00 0.00 0.00 0.00 0.00 0.00 0.01 0.02 0.02 0.02 0.02 0.02 0.02 0.02 0.02 0.02 0.02 0.02 0.01 0.01 0.00 0.01 0.02 0.02 0.02 0.02 0.02 0.02 0.01 0.01 0.01 0.01 0.01 0.02 0.02 0.02 0.02 0.02 0.01 0.01 0.01 0.02 0.02
0.00 0.00 0.00 0.00 0.00 0.00 0.00 0.01 0.02 0.02 0.03 0.02 0.02 0.01 0.01 0.01 0.02 0.01 0.02 0.01 0.01 0.01 0.01 0.02 0.03 0.03 0.03 0.03 0.02 0.01 0.01 0.01 0.01 0.01 0.02 0.03 0.03 0.02 0.01 0.01 0.02 0.02 0.02
0.00 0.00 0.00 0.00 0.00 0.00 0.00 0.01 0.02 0.02 0.02 0.02 0.02 0.01 0.01 0.02 0.01 0.01 0.01 0.01 0.01 0.01 0.01 0.01 0.02 0.04 0.04 0.03 0.02 0.01 0.01 0.01 0.01 0.01 0.01 0.01 0.02 0.02 0.02 0.02 0.02 0.01 0.02
0.00 0.00 0.00 0.00 0.01 0.01 0.00 0.00 0.02 0.02 0.02 0.02 0.02 0.02 0.02 0.02 0.02 0.02 0.02 0.02 0.02 0.01 0.01 0.01 0.02 0.03 0.03 0.03 0.03 0.03 0.02 0.01 0.01 0.01 0.01 0.01 0.02 0.02 0.03 0.03 0.02 0.02 0.02
0.00 0.00 0.00 0.01 0.01 0.01 0.00 0.00 0.01 0.03 0.03 0.02 0.02 0.03 0.03 0.03 0.04 0.04 0.03 0.03 0.02 0.02 0.01 0.02 0.01 0.01 0.02 0.02 0.02 0.02 0.03 0.03 0.02 0.02 0.02 0.02 0.02 0.03 0.03 0.03 0.03 0.02 0.02
0.00 0.00 0.00 0.00 0.00 0.00 0.01 0.00 0.00 0.01 0.02 0.02 0.03 0.04 0.04 0.04 0.04 0.04 0.04 0.04 0.03 0.02 0.01 0.01 0.01 0.01 0.01 0.01 0.01 0.01 0.02 0.03 0.03 0.02 0.02 0.02 0.02 0.03 0.03 0.03 0.03 0.03 0.02
0.00 0.00 0.00 0.00 0.00 0.00 0.00 0.00 0.01 0.00 0.01 0.01 0.02 0.03 0.03 0.04 0.04 0.03 0.03 0.04 0.03 0.02 0.02 0.02 0.03 0.03 0.01 0.01 0.01 0.01 0.01 0.01 0.02 0.01 0.01 0.01 0.01 0.02 0.02 0.03 0.03 0.02 0.02
0.00 0.00 0.00 0.00 0.00 0.00 0.00 0.01 0.01 0.00 0.00 0.01 0.02 0.01 0.02 0.02 0.02 0.02 0.02 0.03 0.04 0.04 0.03 0.01 0.02 0.04 0.02 0.01 0.01 0.01 0.01 0.01 0.02 0.01 0.01 0.01 0.01 0.01 0.01 0.02 0.03 0.03 0.03
0.00 0.00 0.00 0.00 0.00 0.00 0.00 0.01 0.01 0.01 0.02 0.02 0.02 0.01 0.01 0.01 0.02 0.02 0.02 0.03 0.04 0.05 0.04 0.02 0.02 0.03 0.03 0.01 0.01 0.01 0.01 0.02 0.02 0.01 0.01 0.01 0.01 0.01 0.01 0.01 0.02 0.03 0.03
0.00 0.00 0.00 0.00 0.00 0.00 0.00 0.01 0.01 0.01 0.02 0.01 0.01 0.01 0.01 0.01 0.01 0.02 0.02 0.03 0.04 0.05 0.06 0.04 0.03 0.02 0.04 0.03 0.02 0.01 0.01 0.02 0.02 0.01 0.01 0.01 0.01 0.01 0.01 0.01 0.01 0.01 0.02
0.00 0.00 0.00 0.00 0.00 0.00 0.01 0.01 0.01 0.01 0.01 0.01 0.01 0.01 0.02 0.02 0.02 0.03 0.04 0.03 0.03 0.04 0.05 0.05 0.03 0.02 0.03 0.03 0.02 0.02 0.01 0.02 0.02 0.02 0.01 0.01 0.00 0.01 0.01 0.01 0.01 0.01 0.01
0.00 0.00 0.00 0.00 0.01 0.01 0.01 0.01 0.01 0.00 0.00 0.00 0.01 0.01 0.01 0.02 0.03 0.04 0.05 0.04 0.04 0.04 0.05 0.05 0.04 0.03 0.03 0.03 0.02 0.01 0.01 0.01 0.01 0.01 0.01 0.01 0.01 0.00 0.00 0.01 0.01 0.01 0.01
0.00 0.00 0.00 0.01 0.01 0.01 0.01 0.01 0.01 0.01 0.01 0.01 0.01 0.01 0.01 0.02 0.03 0.04 0.04 0.04 0.04 0.04 0.05 0.06 0.06 0.04 0.05 0.04 0.02 0.01 0.01 0.01 0.01 0.00 0.00 0.01 0.01 0.01 0.01 0.01 0.01 0.01 0.01
0.00 0.00 0.01 0.01 0.01 0.01 0.00 0.01 0.01 0.01 0.02 0.02 0.01 0.02 0.03 0.03 0.03 0.04 0.04 0.04 0.04 0.05 0.05 0.05 0.05 0.05 0.05 0.04 0.02 0.02 0.01 0.01 0.01 0.01 0.01 0.01 0.01 0.01 0.01 0.01 0.00 0.00 0.01
0.00 0.00 0.00 0.00 0.00 0.00 0.00 0.00 0.01 0.01 0.02 0.02 0.02 0.03 0.04 0.05 0.05 0.05 0.05 0.04 0.04 0.04 0.05 0.05 0.04 0.04 0.04 0.04 0.02 0.02 0.01 0.01 0.01 0.01 0.01 0.01 0.01 0.01 0.01 0.01 0.01 0.00 0.00
0.00 0.00 0.00 0.00 0.00 0.00 0.00 0.00 0.01 0.01 0.01 0.02 0.02 0.03 0.04 0.06 0.07 0.08 0.07 0.05 0.05 0.05 0.05 0.05 0.05 0.04 0.04 0.05 0.03 0.02 0.01 0.01 0.01 0.01 0.02 0.02 0.01 0.01 0.01 0.01 0.01 0.00 0.00
0.00 0.00 0.00 0.00 0.00 0.01 0.01 0.01 0.01 0.02 0.02 0.02 0.03 0.03 0.05 0.07 0.06 0.07 0.10 0.10 0.07 0.07 0.06 0.05 0.05 0.05 0.04 0.04 0.03 0.02 0.01 0.01 0.01 0.01 0.02 0.02 0.02 0.01 0.02 0.01 0.01 0.01 0.00
0.00 0.00 0.00 0.00 0.00 0.01 0.01 0.01 0.01 0.03 0.04 0.03 0.03 0.03 0.03 0.05 0.06 0.05 0.05 0.08 0.10 0.09 0.07 0.05 0.05 0.05 0.05 0.04 0.03 0.03 0.01 0.01 0.01 0.01 0.02 0.02 0.02 0.02 0.03 0.02 0.01 0.01 0.01
0.00 0.00 0.00 0.00 0.00 0.00 0.01 0.01 0.01 0.01 0.02 0.02 0.02 0.01 0.02 0.02 0.04 0.05 0.05 0.05 0.06 0.09 0.08 0.07 0.06 0.07 0.06 0.05 0.03 0.02 0.01 0.01 0.01 0.02 0.02 0.03 0.03 0.04 0.03 0.02 0.02 0.01 0.01
0.00 0.00 0.00 0.00 0.00 0.01 0.01 0.02 0.01 0.01 0.01 0.01 0.01 0.01 0.01 0.01 0.01 0.02 0.03 0.03 0.03 0.05 0.08 0.09 0.08 0.08 0.06 0.06 0.04 0.03 0.03 0.03 0.02 0.02 0.02 0.02 0.03 0.03 0.02 0.02 0.03 0.03 0.03
0.00 0.00 0.00 0.00 0.00 0.01 0.01 0.02 0.02 0.01 0.02 0.02 0.02 0.02 0.02 0.01 0.01 0.01 0.02 0.02 0.03 0.05 0.06 0.07 0.08 0.08 0.07 0.07 0.06 0.05 0.03 0.03 0.02 0.03 0.02 0.02 0.03 0.03 0.02 0.03 0.04 0.05 0.04
0.00 0.00 0.00 0.00 0.00 0.00 0.01 0.02 0.02 0.01 0.01 0.02 0.03 0.03 0.03 0.03 0.02 0.02 0.02 0.02 0.03 0.04 0.05 0.07 0.08 0.07 0.07 0.07 0.06 0.05 0.03 0.02 0.01 0.01 0.02 0.02 0.02 0.02 0.02 0.02 0.04 0.04 0.04
0.00 0.00 0.00 0.00 0.00 0.00 0.01 0.01 0.01 0.01 0.01 0.01 0.02 0.02 0.02 0.02 0.03 0.03 0.03 0.03 0.03 0.04 0.04 0.05 0.06 0.06 0.07 0.07 0.05 0.04 0.03 0.03 0.02 0.01 0.01 0.02 0.02 0.02 0.02 0.03 0.03 0.02 0.03
0.00 0.00 0.00 0.00 0.00 0.01 0.01 0.01 0.01 0.01 0.02 0.02 0.02 0.02 0.02 0.02 0.02 0.02 0.03 0.03 0.03 0.03 0.03 0.04 0.04 0.05 0.05 0.05 0.05 0.04 0.03 0.03 0.03 0.03 0.02 0.02 0.02 0.03 0.03 0.03 0.03 0.03 0.03
0.00 0.00 0.00 0.00 0.00 0.00 0.01 0.01 0.01 0.01 0.02 0.02 0.02 0.02 0.02 0.02 0.02 0.02 0.02 0.03 0.03 0.02 0.02 0.02 0.03 0.03 0.03 0.04 0.04 0.04 0.04 0.04 0.04 0.04 0.03 0.02 0.02 0.02 0.03 0.04 0.03 0.03 0.02
MSLP
1022.74 1022.89 1023.04 1023.12 1023.13 1023.04 1022.89 1022.69 1022.50 1022.34 1022.27 1022.27 1022.35 1022.49 1022.65 1022.80 1022.92 1022.98 1023.01 1023.00 1022.99 1023.01 1023.07 1023.20 1023.38 1023.61 1023.86 1024.11 1024.34 1024.51 1024.64 1024.73 1024.79 1024.86 1024.94 1025.05 1025.20 1025.37 1025.54 1025.67 1025.75 1025.74 1025.63
1023.24 1023.40 1023.57 1023.68 1023.72 1023.66 1023.51 1023.32 1023.12 1022.97 1022.90 1022.93 1023.05 1023.23 1023.43 1023.62 1023.75 1023.82 1023.81 1023.75 1023.67 1023.61 1023.59 1023.63 1023.75 1023.92 1024.14 1024.36 1024.56 1024.74 1024.87 1024.97 1025.05 1025.13 1025.25 1025.40 1025.59 1025.81 1026.03 1026.23 1026.36 1026.40 1026.35
1023.77 1023.89 1024.04 1024.17 1024.23 1024.20 1024.08 1023.90 1023.71 1023.57 1023.51 1023.55 1023.69 1023.90 1024.12 1024.33 1024.47 1024.53 1024.50 1024.39 1024.25 1024.12 1024.02 1023.98 1024.02 1024.12 1024.28 1024.46 1024.63 1024.79 1024.92 1025.03 1025.13 1025.24 1025.39 1025.59 1025.84 1026.11 1026.40 1026.66 1026.86 1026.98 1027.00
1024.30 1024.35 1024.46 1024.58 1024.65 1024.64 1024.55 1024.39 1024.23 1024.10 1024.06 1024.11 1024.25 1024.46 1024.70 1024.91 1025.06 1025.10 1025.05 1024.92 1024.73 1024.54 1024.37 1024.26 1024.23 1024.27 1024.36 1024.49 1024.62 1024.75 1024.87 1024.98 1025.10 1025.24 1025.42 1025.65 1025.94 1026.27 1026.61 1026.94 1027.22 1027.42 1027.52
1024.84 1024.78 1024.83 1024.91 1024.98 1024.98 1024.91 1024.79 1024.65 1024.54 1024.51 1024.56 1024.70 1024.91 1025.14 1025.35 1025.48 1025.53 1025.46 1025.32 1025.11 1024.88 1024.67 1024.51 1024.42 1024.40 1024.44 1024.51 1024.61 1024.71 1024.81 1024.91 1025.02 1025.17 1025.36 1025.62 1025.93 1026.28 1026.67 1027.04 1027.38 1027.65 1027.84
1025.38 1025.20 1025.17 1025.20 1025.24 1025.24 1025.19 1025.09 1024.97 1024.88 1024.85 1024.90 1025.03 1025.22 1025.43 1025.62 1025.75 1025.79 1025.73 1025.58 1025.37 1025.14 1024.92 1024.74 1024.62 1024.56 1024.55 1024.59 1024.64 1024.71 1024.78 1024.86 1024.96 1025.10 1025.28 1025.52 1025.82 1026.18 1026.57 1026.97 1027.34 1027.67 1027.93
1025.90 1025.63 1025.51 1025.47 1025.48 1025.46 1025.41 1025.31 1025.21 1025.12 1025.08 1025.12 1025.23 1025.39 1025.58 1025.74 1025.86 1025.89 1025.84 1025.71 1025.52 1025.31 1025.10 1024.93 1024.80 1024.73 1024.70 1024.71 1024.74 1024.78 1024.82 1024.87 1024.94 1025.05 1025.19 1025.40 1025.66 1025.98 1026.35 1026.74 1027.12 1027.49 1027.80
1026.41 1026.06 1025.87 1025.78 1025.74 1025.69 1025.61 1025.51 1025.39 1025.30 1025.24 1025.25 1025.33 1025.45 1025.60 1025.74 1025.83 1025.86 1025.81 1025.70 1025.55 1025.37 1025.19 1025.04 1024.94 1024.87 1024.85 1024.85 1024.87 1024.89 1024.91 1024.93 1024.97 1025.03 1025.12 1025.27 1025.47 1025.74 1026.05 1026.40 1026.77 1027.14 1027.50
1026.90 1026.53 1026.29 1026.15 1026.05 1025.96 1025.85 1025.71 1025.57 1025.45 1025.37 1025.34 1025.37 1025.45 1025.55 1025.64 1025.71 1025.72 1025.67 1025.58 1025.45 1025.31 1025.17 1025.07 1024.99 1024.96 1024.95 1024.96 1024.98 1025.00 1025.01 1025.01 1025.01 1025.03 1025.07 1025.15 1025.28 1025.47 1025.72 1026.02 1026.36 1026.72 1027.10
1027.37 1027.02 1026.77 1026.59 1026.45 1026.30 1026.14 1025.97 1025.79 1025.63 1025.52 1025.45 1025.43 1025.45 1025.49 1025.54 1025.56 1025.54 1025.48 1025.38 1025.27 1025.15 1025.05 1024.97 1024.94 1024.93 1024.95 1024.98 1025.02 1025.04 1025.05 1025.04 1025.03 1025.01 1025.01 1025.04 1025.11 1025.23 1025.41 1025.65 1025.96 1026.30 1026.69
1027.82 1027.53 1027.29 1027.10 1026.92 1026.73 1026.52 1026.30 1026.08 1025.89 1025.73 1025.62 1025.56 1025.53 1025.51 1025.50 1025.46 1025.39 1025.30 1025.18 1025.05 1024.93 1024.84 1024.78 1024.76 1024.78 1024.82 1024.87 1024.93 1024.97 1024.99 1024.99 1024.97 1024.95 1024.93 1024.92 1024.95 1025.02 1025.16 1025.36 1025.62 1025.95 1026.33
1028.24 1028.03 1027.83 1027.64 1027.44 1027.21 1026.96 1026.71 1026.46 1026.24 1026.06 1025.92 1025.82 1025.74 1025.67 1025.59 1025.49 1025.36 1025.21 1025.04 1024.87 1024.72 1024.61 1024.54 1024.51 1024.53 1024.57 1024.63 1024.70 1024.76 1024.80 1024.82 1024.82 1024.80 1024.79 1024.78 1024.80 1024.85 1024.96 1025.13 1025.38 1025.69 1026.07
1028.62 1028.50 1028.35 1028.18 1027.97 1027.72 1027.45 1027.18 1026.92 1026.69 1026.50 1026.35 1026.23 1026.12 1026.01 1025.87 1025.70 1025.50 1025.27 1025.03 1024.80 1024.59 1024.42 1024.31 1024.25 1024.23 1024.26 1024.31 1024.37 1024.43 1024.49 1024.53 1024.55 1024.57 1024.58 1024.59 1024.62 1024.69 1024.80 1024.96 1025.20 1025.50 1025.87
1028.94 1028.91 1028.82 1028.67 1028.47 1028.23 1027.96 1027.69 1027.44 1027.22 1027.04 1026.90 1026.78 1026.65 1026.51 1026.33 1026.10 1025.83 1025.52 1025.20 1024.89 1024.60 1024.36 1024.17 1024.04 1023.97 1023.95 1023.96 1024.00 1024.05 1024.10 1024.15 1024.20 1024.24 1024.29 1024.34 1024.40 1024.50 1024.62 1024.80 1025.04 1025.34 1025.69
1029.19 1029.24 1029.21 1029.10 1028.92 1028.69 1028.44 1028.20 1027.97 1027.79 1027.65 1027.53 1027.42 1027.30 1027.14 1026.93 1026.65 1026.32 1025.94 1025.54 1025.15 1024.77 1024.45 1024.18 1023.97 1023.83 1023.73 1023.68 1023.67 1023.68 1023.70 1023.74 1023.79 1023.86 1023.93 1024.01 1024.12 1024.24 1024.40 1024.59 1024.84 1025.13 1025.47
1029.38 1029.49 1029.51 1029.44 1029.29 1029.10 1028.88 1028.67 1028.50 1028.36 1028.25 1028.17 1028.09 1027.98 1027.82 1027.60 1027.29 1026.92 1026.49 1026.03 1025.57 1025.12 1024.72 1024.37 1024.08 1023.85 1023.67 1023.54 1023.45 1023.39 1023.36 1023.36 1023.39 1023.44 1023.52 1023.62 1023.75 1023.90 1024.08 1024.28 1024.53 1024.81 1025.13
1029.50 1029.66 1029.72 1029.69 1029.59 1029.44 1029.26 1029.10 1028.97 1028.88 1028.82 1028.77 1028.72 1028.63 1028.48 1028.25 1027.93 1027.54 1027.09 1026.60 1026.09 1025.61 1025.15 1024.74 1024.39 1024.08 1023.81 1023.59 1023.41 1023.26 1023.15 1023.07 1023.04 1023.05 1023.09 1023.18 1023.30 1023.45 1023.64 1023.85 1024.09 1024.36 1024.66
1029.55 1029.76 1029.86 1029.88 1029.82 1029.71 1029.58 1029.46 1029.37 1029.32 1029.29 1029.27 1029.24 1029.16 1029.02 1028.80 1028.49 1028.11 1027.66 1027.17 1026.67 1026.18 1025.71 1025.27 1024.87 1024.50 1024.16 1023.85 1023.57 1023.31 1023.09 1022.92 1022.79 1022.71 1022.69 1022.72 1022.81 1022.93 1023.10 1023.29 1023.52 1023.77 1024.05
1029.54 1029.79 1029.94 1030.00 1029.98 1029.92 1029.83 1029.74 1029.68 1029.65 1029.64 1029.64 1029.61 1029.55 1029.42 1029.21 1028.92 1028.57 1028.15 1027.70 1027.24 1026.77 1026.32 1025.89 1025.48 1025.08 1024.69 1024.30 1023.92 1023.56 1023.22 1022.91 1022.66 1022.47 1022.35 1022.30 1022.31 1022.37 1022.50 1022.65 1022.85 1023.07 1023.33
1029.47 1029.76 1029.95 1030.06 1030.08 1030.05 1030.00 1029.95 1029.90 1029.88 1029.88 1029.87 1029.84 1029.78 1029.66 1029.47 1029.21 1028.90 1028.54 1028.15 1027.75 1027.34 1026.95 1026.55 1026.16 1025.75 1025.33 1024.88 1024.42 1023.95 1023.49 1023.06 1022.68 1022.35 1022.11 1021.94 1021.85 1021.84 1021.89 1021.99 1022.15 1022.34 1022.56
1029.32 1029.65 1029.89 1030.03 1030.10 1030.11 1030.09 1030.06 1030.03 1030.01 1030.00 1029.98 1029.95 1029.88 1029.77 1029.60 1029.38 1029.11 1028.81 1028.50 1028.18 1027.85 1027.53 1027.19 1026.84 1026.45 1026.01 1025.54 1025.01 1024.46 1023.89 1023.34 1022.82 1022.36 1021.98 1021.69 1021.49 1021.38 1021.35 1021.38 1021.47 1021.61 1021.80
1029.08 1029.44 1029.71 1029.90 1030.01 1030.06 1030.07 1030.06 1030.05 1030.03 1030.02 1030.00 1029.96 1029.89 1029.79 1029.64 1029.45 1029.24 1029.00 1028.76 1028.52 1028.28 1028.03 1027.76 1027.45 1027.10 1026.68 1026.19 1025.63 1025.02 1024.37 1023.71 1023.09 1022.51 1022.01 1021.59 1021.28 1021.06 1020.93 1020.88 1020.90 1020.98 1021.11
1028.71 1029.10 1029.41 1029.63 1029.78 1029.87 1029.92 1029.95 1029.96 1029.96 1029.96 1029.94 1029.91 1029.85 1029.75 1029.63 1029.48 1029.31 1029.13 1028.96 1028.78 1028.61 1028.42 1028.22 1027.97 1027.65 1027.26 1026.77 1026.21 1025.57 1024.87 1024.16 1023.45 1022.78 1022.18 1021.66 1021.24 1020.92 1020.69 1020.55 1020.48 1020.48 1020.53
1028.22 1028.62 1028.95 1029.21 1029.40 1029.54 1029.64 1029.71 1029.76 1029.79 1029.82 1029.82 1029.81 1029.77 1029.70 1029.60 1029.48 1029.35 1029.21 1029.08 1028.96 1028.83 1028.70 1028.54 1028.33 1028.06 1027.71 1027.25 1026.71 1026.08 1025.38 1024.64 1023.90 1023.18 1022.52 1021.92 1021.42 1021.01 1020.69 1020.44 1020.27 1020.17 1020.12
1027.61 1028.01 1028.36 1028.64 1028.88 1029.07 1029.22 1029.34 1029.45 1029.53 1029.60 1029.64 1029.66 1029.65 1029.61 1029.54 1029.45 1029.35 1029.24 1029.14 1029.04 1028.94 1028.84 1028.72 1028.55 1028.32 1028.01 1027.61 1027.11 1026.52 1025.86 1025.15 1024.42 1023.70 1023.01 1022.38 1021.82 1021.34 1020.93 1020.59 1020.31 1020.08 1019.90
1026.92 1027.32 1027.67 1027.98 1028.25 1028.49 1028.70 1028.88 1029.05 1029.19 1029.31 1029.40 1029.47 1029.49 1029.49 1029.45 1029.38 1029.30 1029.20 1029.11 1029.02 1028.93 1028.85 1028.74 1028.60 1028.42 1028.16 1027.82 1027.40 1026.89 1026.31 1025.67 1025.00 1024.32 1023.66 1023.03 1022.44 1021.91 1021.43 1020.99 1020.60 1020.24 1019.92
Thickness
5731 5731 5730 5729 5727 5726 5724 5721 5719 5718 5717 5714 5712 5711 5709 5711 5711 5711 5711 5711 5711 5710 5709 5708 5707 5706 5704 5703 5702 5700 5698 5697 5697 5694 5690 5692 5694 5693 5691 5691 5690 5689 5688
5728 5726 5726 5724 5723 5721 5719 5718 5716 5715 5713 5711 5711 5710 5708 5707 5707 5707 5707 5706 5706 5706 5705 5704 5702 5701 5699 5698 5697 5696 5693 5693 5694 5689 5684 5680 5680 5684 5686 5685 5684 5683 5683
5725 5723 5722 5720 5719 5717 5716 5715 5714 5713 5711 5709 5708 5706 5704 5703 5701 5700 5701 5702 5702 5701 5701 5700 5699 5698 5696 5694 5693 5692 5689 5686 5688 5689 5683 5676 5670 5672 5676 5678 5679 5678 5678
5726 5722 5719 5717 5715 5715 5715 5713 5712 5710 5709 5707 5704 5700 5696 5694 5696 5697 5697 5698 5698 5698 5697 5696 5695 5694 5693 5691 5690 5689 5687 5684 5681 5683 5684 5681 5677 5669 5665 5669 5672 5673 5673
5724 5720 5717 5715 5714 5713 5711 5710 5708 5707 5705 5703 5701 5697 5695 5694 5694 5695 5694 5693 5693 5693 5693 5692 5691 5690 5689 5688 5687 5685 5684 5681 5679 5677 5677 5675 5674 5672 5663 5658 5661 5664 5666
5722 5718 5716 5713 5710 5709 5707 5706 5703 5701 5700 5699 5697 5695 5692 5691 5690 5689 5688 5688 5688 5688 5688 5688 5687 5686 5685 5684 5683 5682 5680 5678 5676 5674 5672 5669 5666 5664 5661 5656 5655 5655 5658
5719 5714 5710 5707 5705 5703 5702 5701 5698 5696 5696 5694 5693 5692 5690 5689 5687 5685 5684 5683 5682 5682 5683 5684 5683 5682 5681 5681 5679 5678 5676 5674 5672 5670 5668 5667 5665 5663 5660 5655 5652 5651 5652
5716 5711 5708 5704 5701 5699 5697 5696 5694 5691 5691 5689 5688 5688 5687 5685 5684 5683 5682 5680 5679 5679 5681 5680 5679 5678 5677 5676 5675 5673 5671 5670 5667 5666 5663 5661 5660 5660 5657 5653 5649 5644 5644
5711 5707 5704 5700 5697 5694 5692 5691 5688 5686 5685 5684 5683 5683 5682 5681 5680 5680 5679 5678 5678 5677 5677 5677 5676 5674 5673 5671 5670 5667 5666 5665 5662 5660 5659 5657 5656 5655 5654 5652 5649 5642 5636
5705 5702 5698 5695 5693 5690 5688 5686 5684 5682 5681 5679 5678 5678 5677 5676 5677 5676 5675 5674 5674 5673 5672 5672 5671 5670 5668 5667 5665 5663 5661 5660 5658 5656 5654 5652 5651 5650 5649 5647 5646 5643 5638
5699 5696 5693 5691 5689 5686 5683 5681 5679 5677 5675 5674 5673 5672 5672 5671 5671 5670 5670 5670 5670 5669 5668 5667 5667 5666 5664 5662 5660 5658 5657 5655 5653 5651 5649 5647 5647 5645 5643 5642 5641 5639 5636
5695 5692 5688 5685 5682 5679 5677 5675 5674 5672 5670 5670 5668 5667 5667 5666 5665 5664 5665 5665 5665 5665 5664 5663 5662 5661 5660 5658 5655 5653 5652 5649 5647 5645 5644 5642 5642 5640 5638 5636 5635 5634 5633
5689 5685 5681 5678 5675 5673 5671 5670 5668 5667 5665 5664 5663 5661 5661 5660 5660 5659 5660 5660 5659 5659 5659 5657 5655 5655 5654 5652 5650 5648 5647 5644 5642 5640 5639 5638 5636 5634 5633 5632 5630 5629 5628
5681 5678 5674 5671 5669 5667 5666 5664 5663 5662 5661 5659 5657 5655 5655 5654 5654 5654 5654 5654 5653 5653 5652 5651 5649 5648 5648 5646 5644 5643 5641 5639 5638 5636 5634 5633 5632 5630 5628 5627 5625 5623 5621
5674 5671 5667 5665 5663 5662 5661 5659 5657 5656 5655 5653 5651 5649 5649 5648 5647 5647 5647 5647 5647 5646 5646 5644 5643 5642 5641 5639 5638 5636 5635 5633 5632 5631 5630 5629 5629 5628 5625 5623 5620 5619 5615
5667 5665 5663 5660 5658 5657 5655 5653 5652 5651 5649 5646 5644 5643 5642 5641 5640 5639 5639 5639 5638 5638 5638 5637 5636 5635 5634 5633 5633 5631 5629 5628 5627 5626 5625 5625 5624 5622 5621 5619 5618 5616 5612
5659 5658 5657 5655 5653 5652 5651 5648 5647 5645 5643 5640 5638 5637 5635 5634 5633 5632 5631 5630 5630 5630 5630 5629 5629 5628 5628 5628 5627 5626 5624 5623 5622 5621 5620 5620 5619 5617 5615 5613 5612 5611 5610
5654 5652 5651 5650 5649 5648 5647 5644 5641 5639 5636 5633 5631 5630 5628 5626 5626 5624 5623 5622 5623 5623 5622 5622 5622 5621 5620 5621 5621 5620 5619 5618 5617 5616 5615 5614 5612 5611 5609 5607 5605 5604 5604
5649 5648 5647 5647 5645 5643 5641 5638 5635 5632 5629 5627 5625 5624 5623 5621 5619 5617 5616 5616 5616 5615 5615 5615 5615 5614 5614 5614 5614 5613 5612 5611 5611 5611 5610 5609 5606 5606 5605 5602 5599 5598 5597
5644 5642 5641 5640 5638 5637 5635 5631 5628 5625 5622 5621 5620 5619 5618 5615 5613 5612 5610 5610 5609 5609 5608 5608 5608 5608 5607 5606 5606 5606 5605 5604 5604 5604 5604 5603 5601 5600 5598 5596 5593 5591 5591
5637 5636 5634 5631 5630 5629 5627 5623 5621 5618 5618 5616 5615 5613 5612 5610 5608 5606 5605 5603 5602 5601 5601 5601 5601 5601 5600 5599 5598 5598 5597 5597 5596 5596 5596 5595 5595 5593 5592 5591 5589 5588 5587
5629 5627 5625 5622 5622 5622 5619 5615 5613 5612 5612 5610 5608 5606 5605 5604 5603 5600 5598 5597 5595 5593 5592 5592 5592 5592 5592 5592 5591 5590 5590 5590 5589 5588 5589 5588 5587 5586 5585 5585 5585 5584 5582
5620 5618 5616 5614 5614 5613 5611 5608 5606 5605 5604 5602 5600 5599 5598 5597 5595 5593 5591 5589 5588 5586 5585 5584 5584 5584 5584 5584 5584 5583 5582 5582 5581 5581 5581 5581 5580 5579 5579 5578 5578 5577 5574
5610 5609 5607 5605 5604 5604 5603 5601 5599 5597 5595 5593 5592 5591 5589 5588 5586 5585 5584 5582 5580 5578 5577 5577 5577 5577 5576 5575 5575 5574 5573 5573 5573 5573 5573 5573 5573 5572 5571 5571 5570 5569 5568
5601 5600 5598 5596 5595 5595 5593 5592 5590 5589 5586 5584 5583 5582 5580 5578 5577 5576 5575 5574 5573 5571 5570 5569 5569 5568 5567 5568 5568 5566 5566 5565 5565 5564 5562 5561 5562 5562 5561 5561 5561 5561 5560
5592 5591 5589 5588 5586 5585 5584 5583 5582 5580 5578 5576 5574 5572 5571 5569 5568 5566 5564 5565 5565 5564 5564 5563 5561 5561 5561 5561 5560 5559 5558 5557 5556 5554 5553 5552 5552 5552 5552 5552 5552 5552 5551